Bradford, PA

11:46 PM EDT on May 26, 2018 (GMT -0400)
Bradford Regional

Weather History for KBFD - May, 2013

Change the Weather History Date:

Saturday, May 25, 2013

  Actual Average Record
Temperature  
Mean Temperature 45 °F 56 °F  
Max Temperature 55 °F 68 °F 84 °F (2012)
Min Temperature 35 °F 43 °F 30 °F (1992)
Degree Days  
Heating Degree Days 20 6  
Month to date heating degree days 212  
Since 1 July heating degree days 7463  
Cooling Degree Days 0 0  
Month to date cooling degree days 0  
Year to date cooling degree days 2  
Moisture  
Dew Point 31 °F    
Average Humidity 62    
Maximum Humidity 82    
Minimum Humidity 35    
Precipitation  
Precipitation 0.00 in 0.15 in 1.57 in (1994)
Month to date precipitation 3.33  
Year to date precipitation 15.89  
Sea Level Pressure  
Sea Level Pressure 30.21 in    
Wind  
Wind Speed 10 mph (NW)    
Max Wind Speed 23 mph    
Max Gust Speed 31 mph    
Visibility 10 miles    
Events      
T = Trace of Precipitation, MM = Missing Value Source: NWS Daily Summary

Daily Weather History Graph

Daily Weather History Graph

Search for Another Location

Airport or City:

Astronomy

May. 25, 2013 Rise Set
Actual Time 5:46 AM EDT 8:37 PM EDT
Civil Twilight 5:13 AM EDT 9:10 PM EDT
Nautical Twilight 4:31 AM EDT 9:52 PM EDT
Astronomical Twilight 3:43 AM EDT 10:40 PM EDT
Moon 9:23 PM EDT (5/25) 6:11 AM EDT (5/25)
Length of Visible Light 15h 57m
Length of Day
14h 51m
Full, 100% of the Moon is Illuminated
May 25
Full
May 31
Last Quarter
Jun 8
New
Jun 16
First Quarter
Jun 23
Full

Hourly Weather History & Observations

Time (EDT) Temp. Windchill Dew Point Humidity Pressure Visibility Wind Dir Wind Speed Gust Speed Precip Events Conditions
12:53 AM 37.0 °F 31.6 °F 32.0 °F 82% 30.22 in 10.0 mi NW 6.9 mph - N/A   Mostly Cloudy
1:53 AM 37.0 °F 31.6 °F 30.9 °F 79% 30.21 in 10.0 mi NNW 6.9 mph - N/A   Overcast
2:53 AM 36.0 °F 30.3 °F 30.9 °F 82% 30.22 in 10.0 mi NNW 6.9 mph - N/A   Overcast
3:53 AM 35.1 °F 29.3 °F 30.0 °F 82% 30.23 in 10.0 mi NW 6.9 mph - N/A   Partly Cloudy
4:53 AM 35.1 °F 30.1 °F 30.0 °F 82% 30.22 in 10.0 mi NW 5.8 mph - N/A   Scattered Clouds
5:04 AM 36.0 °F 31.1 °F 30.0 °F 79% 30.18 in 10.0 mi WNW 5.8 mph - N/A   Mostly Cloudy
5:30 AM 35.1 °F 30.1 °F 30.0 °F 82% 30.17 in 10.0 mi NW 5.8 mph - N/A   Mostly Cloudy
5:53 AM 36.0 °F 30.3 °F 30.9 °F 82% 30.22 in 10.0 mi NW 6.9 mph - N/A   Overcast
6:53 AM 37.0 °F 31.6 °F 32.0 °F 82% 30.23 in 10.0 mi NW 6.9 mph - N/A   Overcast
7:53 AM 39.9 °F 33.9 °F 33.1 °F 77% 30.23 in 10.0 mi NNW 9.2 mph - N/A   Overcast
8:24 AM 41.0 °F 34.3 °F 32.0 °F 70% 30.20 in 10.0 mi NNW 11.5 mph - N/A   Scattered Clouds
8:53 AM 43.0 °F 36.8 °F 32.0 °F 65% 30.23 in 10.0 mi NNW 11.5 mph 21.9 mph N/A   Partly Cloudy
9:53 AM 46.0 °F 38.5 °F 32.0 °F 58% 30.23 in 10.0 mi NW 19.6 mph 25.3 mph N/A   Mostly Cloudy
10:11 AM 45.0 °F 37.9 °F 30.9 °F 58% 30.20 in 10.0 mi NNW 16.1 mph 29.9 mph N/A   Mostly Cloudy
10:53 AM 46.9 °F - 30.0 °F 52% 30.24 in 10.0 mi NNW 17.3 mph 26.5 mph N/A   Mostly Cloudy
11:53 AM 50.0 °F - 30.9 °F 48% 30.25 in 10.0 mi NW 23.0 mph 28.8 mph N/A   Mostly Cloudy
12:53 PM 51.1 °F - 30.0 °F 44% 30.23 in 10.0 mi NNW 21.9 mph 29.9 mph N/A   Partly Cloudy
1:53 PM 52.0 °F - 30.0 °F 43% 30.20 in 10.0 mi North 13.8 mph - N/A   Clear
2:53 PM 54.0 °F - 30.0 °F 40% 30.20 in 10.0 mi NW 20.7 mph 27.6 mph N/A   Clear
3:53 PM 54.0 °F - 27.0 °F 35% 30.19 in 10.0 mi NNW 18.4 mph 29.9 mph N/A   Clear
4:53 PM 55.0 °F - 30.0 °F 38% 30.19 in 10.0 mi NW 13.8 mph 25.3 mph N/A   Clear
5:53 PM 54.0 °F - 30.0 °F 40% 30.19 in 10.0 mi NW 15.0 mph 31.1 mph N/A   Scattered Clouds
6:53 PM 53.1 °F - 28.9 °F 40% 30.20 in 10.0 mi NW 18.4 mph 27.6 mph N/A   Partly Cloudy
7:53 PM 51.1 °F - 30.0 °F 44% 30.19 in 10.0 mi NW 15.0 mph 25.3 mph N/A   Clear
8:53 PM 46.0 °F 43.1 °F 30.9 °F 56% 30.19 in 10.0 mi NW 5.8 mph - N/A   Clear
9:53 PM 43.0 °F 40.3 °F 32.0 °F 65% 30.20 in 10.0 mi NW 4.6 mph - N/A   Clear
10:53 PM 41.0 °F 38.0 °F 32.0 °F 70% 30.21 in 10.0 mi NNW 4.6 mph - N/A   Clear
11:53 PM 41.0 °F 35.8 °F 30.9 °F 67% 30.20 in 10.0 mi NW 8.1 mph - N/A   Clear